Weather History for Pittsburg, KS

Change the Weather History Date:

Thursday, February 21, 2013

  Actual Average (KJLN) Record (KJLN)
Temperature  
Mean Temperature 32 °F 42 °F  
Max Temperature 35 °F 52 °F 76 °F (1996)
Min Temperature 30 °F 31 °F 9 °F (1963)
Degree Days  
Heating Degree Days 32 23  
Month to date heating degree days 550  
Since 1 July heating degree days 3099  
Cooling Degree Days 0 0  
Month to date cooling degree days 0  
Year to date cooling degree days 0  
Moisture  
Dew Point 30 °F    
Average Humidity 93    
Maximum Humidity 100    
Minimum Humidity 64    
Precipitation  
Precipitation 0.00 in 0.09 in 1.05 in (2013)
Month to date precipitation 1.67  
Year to date precipitation 3.70  
Sea Level Pressure  
Sea Level Pressure 29.83 in    
Wind  
Wind Speed 10 mph (ESE)    
Max Wind Speed 17 mph    
Max Gust Speed 23 mph    
Visibility 5 miles    
Events Thunderstorm    
T = Trace of Precipitation, MM = Missing Value Source: NWS Daily Summary

Daily Weather History Graph

Daily Weather History Graph

Search for Another Location

Airport:

Trip Planner

Search our weather history database for the weather conditions in past years. The results will help you decide how hot, cold, wet, or windy it might be!

Date:

Astronomy

Feb. 21, 2013 Rise Set
Actual Time 7:00 AM CST 6:05 PM CST
Civil Twilight 6:34 AM CST 6:31 PM CST
Nautical Twilight 6:03 AM CST 7:01 PM CST
Astronomical Twilight 5:33 AM CST 7:32 PM CST
Moon 2:23 PM CST (2/21) 4:02 AM CST (2/21)
Length of Visible Light 11h 57m
Length of Day
11h 04m
Waxing Gibbous, 84% of the Moon is Illuminated
Feb 21
Waxing Gibbous
Feb 25
Full
Mar 4
Last Quarter
Mar 11
New
Mar 19
First Quarter

Hourly Weather History & Observations

Time (CST) Temp. Windchill Dew Point Humidity Pressure Visibility Wind Dir Wind Speed Gust Speed Precip Events Conditions
12:15 AM 30.7 °F 21.4 °F 20.7 °F 66% 30.09 in 10.0 mi East 11.5 mph - N/A   Mostly Cloudy
12:35 AM 30.7 °F 22.6 °F 21.2 °F 68% 30.08 in 10.0 mi East 9.2 mph - N/A   Scattered Clouds
12:55 AM 30.7 °F 20.9 °F 21.2 °F 68% 30.07 in 10.0 mi East 12.7 mph - N/A   Mostly Cloudy
1:15 AM 30.7 °F 22.0 °F 21.6 °F 69% 30.07 in 10.0 mi East 10.4 mph 18.4 mph N/A   Scattered Clouds
1:35 AM 30.9 °F 21.7 °F 21.7 °F 69% 30.05 in 10.0 mi East 11.5 mph 17.3 mph N/A   Mostly Cloudy
1:55 AM 30.7 °F 21.4 °F 22.3 °F 71% 30.05 in 10.0 mi East 11.5 mph 16.1 mph N/A   Mostly Cloudy
2:15 AM 30.7 °F 20.9 °F 22.5 °F 71% 30.01 in 10.0 mi East 12.7 mph - N/A   Mostly Cloudy
2:35 AM 31.3 °F 20.3 °F 21.9 °F 68% 30.02 in 10.0 mi ESE 16.1 mph 20.7 mph N/A   Mostly Cloudy
2:55 AM 32.0 °F 22.1 °F 21.0 °F 64% 30.01 in 10.0 mi ESE 13.8 mph 19.6 mph N/A   Overcast
3:15 AM 31.8 °F 21.4 °F 21.0 °F 64% 29.97 in 10.0 mi East 15.0 mph 19.6 mph N/A   Mostly Cloudy
3:35 AM 31.5 °F 20.1 °F 21.6 °F 67% 29.95 in 7.0 mi East 17.3 mph 23.0 mph N/A   Overcast
3:55 AM 30.7 °F 24.1 °F 24.4 °F 77% 29.97 in 5.0 mi East 6.9 mph 16.1 mph N/A   Overcast
4:15 AM 30.7 °F 21.4 °F 24.8 °F 79% 29.96 in 10.0 mi East 11.5 mph 17.3 mph N/A   Overcast
4:35 AM 30.7 °F 21.4 °F 25.7 °F 82% 29.95 in 5.0 mi East 11.5 mph - N/A   Overcast
4:55 AM 30.7 °F 20.9 °F 27.5 °F 88% 29.92 in 4.0 mi East 12.7 mph 17.3 mph N/A   Overcast
5:15 AM 30.7 °F 20.9 °F 28.4 °F 91% 29.92 in 7.0 mi East 12.7 mph 18.4 mph N/A   Overcast
5:55 AM 30.7 °F 23.3 °F 30.0 °F 97% 29.93 in 4.0 mi ESE 8.1 mph 16.1 mph N/A   Overcast
6:15 AM 30.7 °F 20.9 °F 30.6 °F 99% 29.83 in 2.5 mi East 12.7 mph 18.4 mph N/A Thunderstorm Overcast
6:35 AM - - - N/A% 29.84 in 3.0 mi East 15.0 mph 21.9 mph N/A Thunderstorm Thunderstorm
6:55 AM 31.8 °F 26.2 °F 32.0 °F 100% 29.87 in 5.0 mi East 5.8 mph 18.4 mph N/A   Overcast
7:15 AM 32.0 °F 23.6 °F 32.0 °F 100% 29.82 in 4.0 mi East 10.4 mph - N/A   Overcast
7:35 AM 31.5 °F 24.9 °F 31.5 °F 100% 29.98 in 2.5 mi NW 6.9 mph - N/A Thunderstorm Overcast
7:55 AM 32.0 °F 27.5 °F 32.0 °F 100% 29.92 in 1.5 mi NNE 4.6 mph - N/A   Overcast
8:15 AM 31.5 °F 26.8 °F 31.6 °F 100% 29.90 in 0.5 mi NE 4.6 mph - N/A Thunderstorm Overcast
8:35 AM 30.7 °F 24.1 °F 30.9 °F 100% 29.91 in 0.8 mi NNE 6.9 mph - N/A Thunderstorm Overcast
8:55 AM 30.7 °F 23.3 °F 30.9 °F 100% 29.88 in 0.8 mi ENE 8.1 mph - N/A Thunderstorm Overcast
9:15 AM 30.7 °F 21.4 °F 30.9 °F 100% 29.86 in 0.8 mi East 11.5 mph - N/A Thunderstorm Overcast
9:35 AM 30.7 °F 21.4 °F 30.9 °F 100% 29.84 in 1.0 mi East 11.5 mph - N/A   Overcast
9:55 AM 30.7 °F 22.6 °F 30.9 °F 100% 29.83 in 1.5 mi East 9.2 mph 17.3 mph N/A   Overcast
10:15 AM 30.7 °F 20.4 °F 30.9 °F 100% 29.82 in 1.5 mi East 13.8 mph 18.4 mph N/A   Overcast
10:35 AM 30.7 °F 21.4 °F 30.9 °F 100% 29.83 in 1.8 mi East 11.5 mph 17.3 mph N/A   Overcast
10:55 AM 32.2 °F 24.4 °F 32.2 °F 100% 29.82 in 4.0 mi ESE 9.2 mph - N/A   Overcast
11:15 AM 32.9 °F 25.3 °F 32.9 °F 100% 29.80 in 3.0 mi ESE 9.2 mph 17.3 mph N/A   Overcast
11:35 AM 32.9 °F 25.3 °F 32.9 °F 100% 29.82 in 7.0 mi ESE 9.2 mph - N/A   Overcast
11:55 AM 32.9 °F 24.7 °F 32.9 °F 100% 29.79 in 10.0 mi ESE 10.4 mph - N/A   Overcast
12:15 PM 32.9 °F 25.3 °F 32.9 °F 100% 29.76 in 10.0 mi ESE 9.2 mph - N/A   Overcast
12:35 PM 32.9 °F 24.7 °F 32.9 °F 100% 29.77 in 10.0 mi ESE 10.4 mph - N/A   Overcast
12:55 PM 32.4 °F 26.9 °F 32.5 °F 100% 29.75 in 10.0 mi ESE 5.8 mph - N/A   Overcast
1:15 PM 32.2 °F 26.7 °F 32.2 °F 100% 29.73 in 5.0 mi ESE 5.8 mph 9.2 mph N/A   Overcast
1:35 PM 32.0 °F 23.6 °F 32.2 °F 100% 29.73 in 1.5 mi ESE 10.4 mph - N/A   Overcast
1:55 PM 32.5 °F 26.2 °F 32.5 °F 100% 29.72 in 1.2 mi ESE 6.9 mph - N/A   Overcast
2:15 PM 32.9 °F 26.7 °F 32.9 °F 100% 29.72 in 1.5 mi ESE 6.9 mph - N/A   Overcast
2:35 PM 32.9 °F 27.5 °F 32.9 °F 100% 29.71 in 1.8 mi ESE 5.8 mph - N/A   Overcast
2:55 PM 32.9 °F 26.7 °F 32.9 °F 100% 29.70 in 1.8 mi ESE 6.9 mph - N/A   Overcast
3:15 PM 32.9 °F 27.5 °F 32.9 °F 100% 29.71 in 1.5 mi ESE 5.8 mph - N/A   Overcast
3:35 PM 32.9 °F 27.5 °F 32.9 °F 100% 29.70 in 1.5 mi ESE 5.8 mph - N/A   Overcast
3:55 PM 32.9 °F 28.5 °F 32.9 °F 100% 29.71 in 1.5 mi ESE 4.6 mph - N/A   Overcast
4:15 PM 32.9 °F 26.7 °F 32.9 °F 100% 29.72 in 2.0 mi SE 6.9 mph - N/A   Overcast
4:35 PM 32.9 °F 27.5 °F 32.9 °F 100% 29.71 in 2.0 mi SE 5.8 mph - N/A   Overcast
4:55 PM 32.9 °F 28.5 °F 32.9 °F 100% 29.72 in 2.0 mi SE 4.6 mph - N/A   Overcast
5:15 PM 32.9 °F 28.5 °F 32.9 °F 100% 29.72 in 2.5 mi SE 4.6 mph - N/A   Overcast
5:35 PM 32.9 °F 28.5 °F 32.9 °F 100% 29.73 in 1.8 mi SSE 4.6 mph - N/A   Overcast
5:55 PM 32.9 °F 28.5 °F 32.9 °F 100% 29.73 in 1.5 mi SE 4.6 mph - N/A   Overcast
6:15 PM 32.9 °F 28.5 °F 32.9 °F 100% 29.73 in 3.0 mi SSE 4.6 mph - N/A   Overcast
6:35 PM 32.9 °F - 32.9 °F 100% 29.74 in 7.0 mi Calm Calm - N/A   Overcast
6:55 PM 32.9 °F 29.8 °F 32.9 °F 100% 29.74 in 10.0 mi SSE 3.5 mph - N/A   Overcast
7:15 PM 33.1 °F 30.0 °F 33.1 °F 100% 29.74 in 7.0 mi South 3.5 mph - N/A   Overcast
7:35 PM 33.6 °F 29.4 °F 33.6 °F 100% 29.75 in 4.0 mi South 4.6 mph - N/A   Overcast
7:55 PM 34.0 °F - 34.0 °F 100% 29.75 in 4.0 mi Calm Calm - N/A   Overcast
8:15 PM 35.1 °F 32.2 °F - N/A% 29.75 in 2.5 mi SSW 3.5 mph - N/A   Overcast
8:35 PM 35.6 °F 32.8 °F - N/A% 29.75 in 2.0 mi SW 3.5 mph - N/A   Overcast
8:55 PM 35.6 °F 30.7 °F - N/A% 29.76 in 5.0 mi WSW 5.8 mph - N/A   Overcast
9:15 PM 35.6 °F 29.9 °F - N/A% 29.77 in 7.0 mi WSW 6.9 mph - N/A   Overcast
9:35 PM 35.6 °F 29.9 °F - N/A% 29.77 in 10.0 mi WSW 6.9 mph - N/A   Overcast
9:55 PM 35.6 °F 29.9 °F - N/A% 29.77 in 10.0 mi WSW 6.9 mph - N/A   Overcast
10:15 PM 35.6 °F 30.7 °F 35.6 °F 100% 29.78 in 10.0 mi WSW 5.8 mph - N/A   Overcast
10:35 PM 35.6 °F 29.9 °F 35.6 °F 100% 29.79 in 10.0 mi WSW 6.9 mph - N/A   Overcast
10:55 PM 35.6 °F 28.6 °F 35.6 °F 100% 29.79 in 10.0 mi WSW 9.2 mph - N/A   Overcast
11:15 PM 35.6 °F 29.9 °F 35.6 °F 100% 29.80 in 10.0 mi WSW 6.9 mph - N/A   Overcast
11:35 PM 35.6 °F 28.6 °F 35.6 °F 100% 29.80 in 10.0 mi WSW 9.2 mph - N/A   Overcast
11:55 PM 35.6 °F 27.5 °F 35.6 °F 100% 29.82 in 10.0 mi WSW 11.5 mph - N/A   Overcast